Weather History for Cody, WY

Change the Weather History Date:

Sunday, October 26, 2014

  Actual Average Record
Temperature  
Mean Temperature 48 °F -  
Max Temperature 60 °F 58 °F 77 °F (1926)
Min Temperature 37 °F 34 °F 5 °F (1919)
Degree Days  
Heating Degree Days 16    
Moisture  
Dew Point 29 °F    
Average Humidity 45    
Maximum Humidity 87    
Minimum Humidity 28    
Precipitation  
Precipitation 0.00 in - - ()
Sea Level Pressure  
Sea Level Pressure 29.77 in    
Wind  
Wind Speed 15 mph (WSW)    
Max Wind Speed 30 mph    
Max Gust Speed 45 mph    
Visibility 10 miles    
Events      
Averages and records for this station are not official NWS values.
T = Trace of Precipitation, MM = Missing Value Source: NWS Daily Summary

Daily Weather History Graph

Daily Weather History Graph

Search for Another Location

Airport:

Trip Planner

Search our weather history database for the weather conditions in past years. The results will help you decide how hot, cold, wet, or windy it might be!

Date:

Astronomy

Oct. 26, 2014 Rise Set
Actual Time 7:45 AM MDT 6:13 PM MDT
Civil Twilight 7:15 AM MDT 6:43 PM MDT
Nautical Twilight 6:41 AM MDT 7:17 PM MDT
Astronomical Twilight 6:07 AM MDT 7:51 PM MDT
Moon 10:31 AM MDT 8:23 PM MDT
Length of Visible Light 11h 27m
Length of Day
10h 28m
Waxing Crescent, 9% of the Moon is Illuminated
Oct 26
Waxing Crescent
Oct 30
First Quarter
Nov 6
Full
Nov 14
Last Quarter
Nov 22
New

Hourly Weather History & Observations

Time (MDT) Temp. Windchill Dew Point Humidity Pressure Visibility Wind Dir Wind Speed Gust Speed Precip Events Conditions
12:15 AM 55.4 °F - 28.4 °F 36% 29.75 in 10.0 mi SSW 5.8 mph - N/A   Clear
12:35 AM 55.4 °F - 28.4 °F 36% 29.73 in 10.0 mi South 12.7 mph - N/A   Clear
12:55 AM 60.8 °F - 28.4 °F 29% 29.72 in 10.0 mi SSW 16.1 mph - N/A   Clear
1:15 AM 59.0 °F - 28.4 °F 31% 29.72 in 10.0 mi SW 15.0 mph - N/A   Clear
1:35 AM 60.8 °F - 30.2 °F 31% 29.75 in 10.0 mi West 18.4 mph 33.4 mph N/A   Clear
1:55 AM 59.0 °F - 37.4 °F 45% 29.73 in 10.0 mi SW 27.6 mph 40.3 mph N/A   Clear
2:15 AM 55.4 °F - 37.4 °F 51% 29.73 in 10.0 mi SW 29.9 mph 36.8 mph N/A   Clear
2:35 AM 57.2 °F - 37.4 °F 48% 29.75 in 10.0 mi SW 23.0 mph 38.0 mph N/A   Clear
2:55 AM 55.4 °F - 37.4 °F 51% 29.77 in 10.0 mi WNW 8.1 mph - N/A   Clear
3:15 AM 55.4 °F - 37.4 °F 51% 29.78 in 10.0 mi WNW 10.4 mph 20.7 mph N/A   Mostly Cloudy
3:35 AM 55.4 °F - 37.4 °F 51% 29.80 in 10.0 mi West 10.4 mph 23.0 mph N/A   Overcast
3:55 AM 55.4 °F - 37.4 °F 51% 29.80 in 10.0 mi West 13.8 mph 17.3 mph N/A   Overcast
4:15 AM 53.6 °F - 37.4 °F 54% 29.80 in 10.0 mi WSW 11.5 mph 25.3 mph N/A   Overcast
4:35 AM 53.6 °F - 35.6 °F 51% 29.78 in 10.0 mi WSW 18.4 mph 25.3 mph N/A   Partly Cloudy
4:55 AM 51.8 °F - 35.6 °F 54% 29.78 in 10.0 mi WSW 8.1 mph 20.7 mph N/A   Clear
5:15 AM 51.8 °F - 35.6 °F 54% 29.78 in 10.0 mi West 6.9 mph 27.6 mph N/A   Clear
5:35 AM 51.8 °F - 35.6 °F 54% 29.76 in 10.0 mi WSW 15.0 mph 31.1 mph N/A   Clear
5:55 AM 51.8 °F - 33.8 °F 50% 29.75 in 10.0 mi West 21.9 mph 44.9 mph N/A   Clear
6:15 AM 51.8 °F - 33.8 °F 50% 29.75 in 10.0 mi West 21.9 mph 42.6 mph N/A   Clear
6:35 AM 50.0 °F - 33.8 °F 54% 29.72 in 10.0 mi West 20.7 mph 39.1 mph N/A   Clear
6:55 AM 51.8 °F - 33.8 °F 50% 29.73 in 10.0 mi WSW 25.3 mph 34.5 mph N/A   Clear
7:15 AM 51.8 °F - 32.0 °F 47% 29.72 in 10.0 mi WSW 21.9 mph 34.5 mph N/A   Clear
7:35 AM 51.8 °F - 33.8 °F 50% 29.72 in 10.0 mi WSW 19.6 mph 33.4 mph N/A   Clear
7:55 AM 51.8 °F - 30.2 °F 44% 29.73 in 10.0 mi WSW 21.9 mph 39.1 mph N/A   Clear
8:15 AM 50.0 °F - 32.0 °F 50% 29.74 in 10.0 mi WSW 18.4 mph 26.5 mph N/A   Clear
8:35 AM 50.0 °F - 30.2 °F 47% 29.76 in 10.0 mi West 18.4 mph 27.6 mph N/A   Clear
8:55 AM 51.8 °F - 28.4 °F 41% 29.76 in 10.0 mi West 15.0 mph 25.3 mph N/A   Clear
9:15 AM 53.6 °F - 26.6 °F 35% 29.77 in 10.0 mi West 15.0 mph 27.6 mph N/A   Clear
9:35 AM 53.6 °F - 26.6 °F 35% 29.77 in 10.0 mi West 16.1 mph 25.3 mph N/A   Clear
9:55 AM 53.6 °F - 24.8 °F 33% 29.78 in 10.0 mi West 12.7 mph 32.2 mph N/A   Clear
10:15 AM 53.6 °F - 24.8 °F 33% 29.78 in 10.0 mi WSW 20.7 mph 32.2 mph N/A   Clear
10:35 AM 53.6 °F - 24.8 °F 33% 29.79 in 10.0 mi West 15.0 mph 29.9 mph N/A   Clear
10:55 AM 53.6 °F - 24.8 °F 33% 29.79 in 10.0 mi West 15.0 mph 28.8 mph N/A   Clear
11:15 AM 55.4 °F - 24.8 °F 31% 29.79 in 10.0 mi West 17.3 mph 28.8 mph N/A   Clear
11:35 AM 55.4 °F - 24.8 °F 31% 29.78 in 10.0 mi WSW 17.3 mph 28.8 mph N/A   Clear
11:55 AM 55.4 °F - 24.8 °F 31% 29.77 in 10.0 mi WSW 16.1 mph 24.2 mph N/A   Clear
12:15 PM 55.4 °F - 24.8 °F 31% 29.76 in 10.0 mi WSW 20.7 mph 28.8 mph N/A   Clear
12:35 PM 55.4 °F - 24.8 °F 31% 29.75 in 10.0 mi WSW 17.3 mph 28.8 mph N/A   Clear
12:55 PM 55.4 °F - 26.6 °F 33% 29.75 in 10.0 mi West 23.0 mph 29.9 mph N/A   Clear
1:15 PM 55.4 °F - 28.4 °F 36% 29.75 in 10.0 mi West 21.9 mph 32.2 mph N/A   Clear
1:35 PM 55.4 °F - 26.6 °F 33% 29.74 in 10.0 mi West 15.0 mph 28.8 mph N/A   Clear
1:55 PM 55.4 °F - 28.4 °F 36% 29.74 in 10.0 mi West 19.6 mph 28.8 mph N/A   Clear
2:15 PM 55.4 °F - 28.4 °F 36% 29.73 in 10.0 mi WSW 15.0 mph 25.3 mph N/A   Clear
2:35 PM 55.4 °F - 30.2 °F 38% 29.73 in 10.0 mi West 15.0 mph 26.5 mph N/A   Clear
2:55 PM 53.6 °F - 30.2 °F 41% 29.72 in 10.0 mi WSW 13.8 mph 32.2 mph N/A   Clear
3:15 PM 53.6 °F - 28.4 °F 38% 29.72 in 10.0 mi WSW 21.9 mph 36.8 mph N/A   Clear
3:35 PM 53.6 °F - 28.4 °F 38% 29.74 in 10.0 mi SW 24.2 mph 32.2 mph N/A   Clear
3:55 PM 51.8 °F - 30.2 °F 44% 29.74 in 10.0 mi West 5.8 mph 23.0 mph N/A   Clear
4:15 PM 53.6 °F - 28.4 °F 38% 29.76 in 10.0 mi West 16.1 mph 27.6 mph N/A   Clear
4:35 PM 53.6 °F - 26.6 °F 35% 29.77 in 10.0 mi West 13.8 mph 27.6 mph N/A   Clear
4:55 PM 51.8 °F - 26.6 °F 38% 29.77 in 10.0 mi West 11.5 mph 25.3 mph N/A   Clear
5:15 PM 51.8 °F - 26.6 °F 38% 29.76 in 10.0 mi SW 16.1 mph 20.7 mph N/A   Clear
5:35 PM 51.8 °F - 24.8 °F 35% 29.76 in 10.0 mi WSW 8.1 mph 19.6 mph N/A   Clear
5:55 PM 51.8 °F - 19.4 °F 28% 29.77 in 10.0 mi West 11.5 mph 16.1 mph N/A   Clear
6:15 PM 46.4 °F 41.9 °F 28.4 °F 50% 29.79 in 10.0 mi NW 9.2 mph - N/A   Clear
6:35 PM 46.4 °F 41.5 °F 24.8 °F 43% 29.79 in 10.0 mi NW 10.4 mph 17.3 mph N/A   Clear
6:55 PM 46.4 °F 42.4 °F 24.8 °F 43% 29.80 in 10.0 mi NNW 8.1 mph 17.3 mph N/A   Scattered Clouds
7:15 PM 44.6 °F - 24.8 °F 46% 29.80 in 10.0 mi Calm Calm - N/A   Scattered Clouds
7:35 PM 42.8 °F 38.0 °F 21.2 °F 42% 29.81 in 10.0 mi SSE 8.1 mph - N/A   Mostly Cloudy
7:55 PM 42.8 °F 41.1 °F 24.8 °F 49% 29.81 in 10.0 mi SSW 3.5 mph - N/A   Mostly Cloudy
8:15 PM 42.8 °F 37.5 °F 24.8 °F 49% 29.82 in 10.0 mi West 9.2 mph - N/A   Scattered Clouds
8:35 PM 42.8 °F 37.5 °F 24.8 °F 49% 29.82 in 10.0 mi WNW 9.2 mph - N/A   Clear
8:55 PM 41.0 °F 35.8 °F 26.6 °F 57% 29.84 in 10.0 mi NW 8.1 mph - N/A   Clear
9:15 PM 39.2 °F 30.8 °F 28.4 °F 65% 29.84 in 10.0 mi NW 15.0 mph 34.5 mph N/A   Mostly Cloudy
9:35 PM 39.2 °F 29.8 °F 30.2 °F 70% 29.85 in 10.0 mi NW 18.4 mph 27.6 mph N/A   Overcast
9:55 PM 37.4 °F 28.5 °F 30.2 °F 75% 29.85 in 10.0 mi NW 15.0 mph 25.3 mph N/A   Mostly Cloudy
10:15 PM 37.4 °F 27.5 °F 28.4 °F 70% 29.87 in 10.0 mi West 18.4 mph 28.8 mph N/A   Overcast
10:35 PM 37.4 °F 30.3 °F 33.8 °F 87% 29.85 in 10.0 mi SSW 10.4 mph - N/A   Mostly Cloudy
10:55 PM 37.4 °F 31.4 °F 30.2 °F 75% 29.84 in 10.0 mi SW 8.1 mph 18.4 mph N/A   Overcast
11:15 PM 39.2 °F 30.8 °F 28.4 °F 65% 29.82 in 10.0 mi SW 15.0 mph 18.4 mph N/A   Scattered Clouds
11:35 PM 41.0 °F 34.3 °F 24.8 °F 53% 29.84 in 10.0 mi West 11.5 mph 19.6 mph N/A   Clear
11:55 PM 39.2 °F 31.2 °F 26.6 °F 61% 29.84 in 10.0 mi West 13.8 mph 23.0 mph N/A   Clear